Weather History for Big Rapids, MI

Change the Weather History Date:

Wednesday, October 2, 2013

  Actual Average Record
Temperature  
Mean Temperature 60 °F -  
Max Temperature 74 °F 65 °F 86 °F (1971)
Min Temperature 47 °F 41 °F 28 °F (1974)
Degree Days  
Heating Degree Days 4    
Growing Degree Days 10 (Base 50)    
Moisture  
Dew Point 47 °F    
Average Humidity 68    
Maximum Humidity 100    
Minimum Humidity 23    
Precipitation  
Precipitation 0.00 in - - ()
Sea Level Pressure  
Sea Level Pressure 30.04 in    
Wind  
Wind Speed 4 mph (WNW)    
Max Wind Speed 12 mph    
Max Gust Speed -    
Visibility 10 miles    
Events      
Averages and records for this station are not official NWS values.
T = Trace of Precipitation, MM = Missing Value Source: NWS Daily Summary

Daily Weather History Graph

Daily Weather History Graph

Search for Another Location

Airport:

Trip Planner

Search our weather history database for the weather conditions in past years. The results will help you decide how hot, cold, wet, or windy it might be!

Date:

Astronomy

Oct. 02, 2013 Rise Set
Actual Time 7:41 AM EDT 7:20 PM EDT
Civil Twilight 7:12 AM EDT 7:49 PM EDT
Nautical Twilight 6:39 AM EDT 8:22 PM EDT
Astronomical Twilight 6:05 AM EDT 8:56 PM EDT
Moon 5:09 AM EDT (10/2) 5:58 PM EDT (10/2)
Length of Visible Light 12h 36m
Length of Day
11h 39m
Waning Crescent, 6% of the Moon is Illuminated
Oct 2
Waning Crescent
Oct 4
New
Oct 11
First Quarter
Oct 18
Full
Oct 26
Last Quarter

Hourly Weather History & Observations

Time (EDT) Temp. Dew Point Humidity Pressure Visibility Wind Dir Wind Speed Gust Speed Precip Events Conditions
12:15 AM 65.1 °F 63.5 °F 94% 29.92 in 10.0 mi West 5.8 mph - N/A   Clear
12:34 AM 65.3 °F 63.5 °F 94% 29.92 in 10.0 mi West 5.8 mph - N/A   Clear
12:55 AM 64.6 °F 63.1 °F 95% 29.92 in 10.0 mi West 5.8 mph - N/A   Clear
1:15 AM 64.0 °F 62.6 °F 95% 29.93 in 10.0 mi West 4.6 mph - N/A   Clear
1:34 AM 63.9 °F 62.4 °F 95% 29.93 in 10.0 mi WNW 5.8 mph - N/A   Clear
1:55 AM 63.1 °F 61.7 °F 95% 29.94 in 10.0 mi NNW 5.8 mph - N/A   Clear
2:15 AM 63.3 °F 61.0 °F 92% 29.95 in 10.0 mi NW 5.8 mph - N/A   Clear
2:34 AM 62.6 °F 60.8 °F 94% 29.96 in 10.0 mi NNW 4.6 mph - N/A   Clear
2:55 AM 61.7 °F 60.1 °F 94% 29.96 in 10.0 mi West 3.5 mph - N/A   Clear
3:15 AM 60.3 °F 59.2 °F 96% 29.97 in 10.0 mi Calm Calm - N/A   Clear
3:34 AM 59.2 °F 58.6 °F 98% 29.97 in 10.0 mi WNW 3.5 mph - N/A   Clear
3:55 AM 58.8 °F 57.7 °F 96% 29.97 in 10.0 mi West 9.2 mph - N/A   Clear
4:15 AM 57.4 °F 56.8 °F 98% 29.98 in 10.0 mi West 4.6 mph - N/A   Clear
4:34 AM 56.7 °F 55.8 °F 97% 29.99 in 10.0 mi West 6.9 mph - N/A   Clear
4:55 AM 57.0 °F 54.7 °F 92% 29.99 in 10.0 mi West 6.9 mph - N/A   Clear
5:15 AM 56.3 °F 53.6 °F 91% 30.00 in 10.0 mi West 10.4 mph - N/A   Clear
5:34 AM 55.4 °F 53.1 °F 92% 30.00 in 10.0 mi West 11.5 mph - N/A   Clear
5:55 AM 55.4 °F 52.0 °F 88% 30.00 in 10.0 mi West 10.4 mph - N/A   Clear
6:15 AM 51.3 °F 49.8 °F 95% 30.01 in 10.0 mi WNW 4.6 mph - N/A   Clear
6:35 AM 49.3 °F 49.1 °F 99% 30.03 in 10.0 mi Calm Calm - N/A   Clear
6:54 AM 50.0 °F 50.0 °F 100% 30.03 in 10.0 mi Calm Calm - N/A   Clear
7:14 AM 49.6 °F 49.6 °F 100% 30.04 in 10.0 mi Calm Calm - N/A   Clear
7:35 AM 47.3 °F 47.3 °F 100% 30.05 in 10.0 mi Calm Calm - N/A   Clear
7:54 AM 47.5 °F 47.5 °F 100% 30.05 in 10.0 mi Calm Calm - N/A   Clear
8:15 AM 47.3 °F 47.3 °F 100% 30.07 in 10.0 mi Calm Calm - N/A   Clear
8:35 AM 47.7 °F 47.7 °F 100% 30.07 in 7.0 mi Calm Calm - N/A   Clear
8:54 AM 49.1 °F 49.1 °F 100% 30.08 in 10.0 mi Calm Calm - N/A   Clear
9:15 AM 50.9 °F 50.9 °F 100% 30.09 in 10.0 mi Calm Calm - N/A   Clear
9:35 AM 53.4 °F 53.1 °F 99% 30.09 in 10.0 mi Calm Calm - N/A   Clear
9:54 AM 56.7 °F 53.6 °F 89% 30.09 in 10.0 mi South 5.8 mph - N/A   Clear
10:15 AM 59.4 °F 54.9 °F 85% 30.10 in 10.0 mi Calm Calm - N/A   Clear
10:35 AM 61.7 °F 51.4 °F 69% 30.11 in 10.0 mi Calm Calm - N/A   Clear
10:54 AM 63.9 °F 52.0 °F 65% 30.11 in 10.0 mi ESE 3.5 mph - N/A   Clear
11:15 AM 66.2 °F 49.1 °F 54% 30.11 in 10.0 mi Calm Calm - N/A   Clear
11:35 AM 67.5 °F 43.3 °F 42% 30.11 in 10.0 mi Calm Calm - N/A   Clear
11:54 AM 68.0 °F 40.3 °F 36% 30.11 in 10.0 mi Calm Calm - N/A   Clear
12:15 PM 69.3 °F 40.3 °F 35% 30.11 in 10.0 mi Calm Calm - N/A   Clear
12:35 PM 69.6 °F 39.6 °F 33% 30.10 in 10.0 mi Calm Calm - N/A   Clear
12:54 PM 70.0 °F 41.0 °F 35% 30.10 in 10.0 mi Calm Calm - N/A   Clear
1:15 PM 71.6 °F 39.2 °F 31% 30.10 in 10.0 mi WSW 4.6 mph - N/A   Clear
1:35 PM 71.8 °F 37.9 °F 29% 30.10 in 10.0 mi Calm Calm - N/A   Clear
1:54 PM 73.4 °F 39.0 °F 29% 30.09 in 10.0 mi West 5.8 mph - N/A   Clear
2:15 PM 73.4 °F 39.0 °F 29% 30.09 in 10.0 mi SW 3.5 mph - N/A   Clear
2:34 PM 72.9 °F 35.1 °F 25% 30.08 in 10.0 mi West 8.1 mph - N/A   Clear
2:54 PM 73.4 °F 35.2 °F 25% 30.08 in 10.0 mi West 6.9 mph - N/A   Clear
3:15 PM 74.3 °F 36.5 °F 25% 30.07 in 10.0 mi West 8.1 mph - N/A   Clear
3:34 PM 73.8 °F 33.3 °F 23% 30.07 in 10.0 mi WNW 9.2 mph - N/A   Clear
3:55 PM 72.7 °F 34.7 °F 25% 30.07 in 10.0 mi NNW 3.5 mph - N/A   Clear
4:15 PM 73.6 °F 34.5 °F 24% 30.07 in 10.0 mi NNW 8.1 mph - N/A   Clear
4:34 PM 73.6 °F 36.3 °F 26% 30.07 in 10.0 mi WNW 6.9 mph - N/A   Clear
4:55 PM 73.8 °F 34.0 °F 23% 30.07 in 10.0 mi NNW 5.8 mph - N/A   Clear
5:15 PM 72.7 °F 33.8 °F 24% 30.06 in 10.0 mi NNW 4.6 mph - N/A   Clear
5:34 PM 72.5 °F 34.9 °F 25% 30.06 in 10.0 mi NNW 5.8 mph - N/A   Clear
5:55 PM 72.0 °F 34.5 °F 25% 30.06 in 10.0 mi NNW 4.6 mph - N/A   Clear
6:15 PM 71.1 °F 34.7 °F 26% 30.06 in 10.0 mi Calm Calm - N/A   Clear
6:34 PM 70.9 °F 36.7 °F 29% 30.05 in 10.0 mi Calm Calm - N/A   Clear
6:55 PM 66.6 °F 43.0 °F 42% 30.05 in 10.0 mi Calm Calm - N/A   Clear
7:15 PM 64.6 °F 42.3 °F 44% 30.05 in 10.0 mi Calm Calm - N/A   Clear
7:34 PM 62.1 °F 42.3 °F 48% 30.05 in 10.0 mi West 3.5 mph - N/A   Clear
7:55 PM 59.2 °F 43.9 °F 57% 30.05 in 10.0 mi West 4.6 mph - N/A   Clear
8:15 PM 57.2 °F 44.8 °F 63% 30.06 in 10.0 mi West 3.5 mph - N/A   Clear
8:34 PM 55.8 °F 46.4 °F 71% 30.06 in 10.0 mi Calm Calm - N/A   Clear
8:55 PM 54.5 °F 45.5 °F 72% 30.06 in 10.0 mi Calm Calm - N/A   Clear
9:15 PM 52.7 °F 45.7 °F 77% 30.07 in 10.0 mi West 3.5 mph - N/A   Clear
9:34 PM 52.3 °F 46.4 °F 80% 30.07 in 10.0 mi Calm Calm - N/A   Clear
9:55 PM 51.1 °F 45.1 °F 80% 30.07 in 10.0 mi WNW 5.8 mph - N/A   Clear
10:15 PM 50.2 °F 44.6 °F 81% 30.07 in 10.0 mi WNW 4.6 mph - N/A   Clear
10:34 PM 49.6 °F 44.1 °F 81% 30.07 in 10.0 mi Calm Calm - N/A   Clear
10:55 PM 48.4 °F 43.5 °F 83% 30.07 in 10.0 mi Calm Calm - N/A   Clear
11:14 PM 48.6 °F 43.5 °F 83% 30.07 in 10.0 mi Calm Calm - N/A   Clear
11:34 PM 47.7 °F 44.1 °F 87% 30.07 in 10.0 mi Calm Calm - N/A   Clear
11:55 PM 47.5 °F 43.0 °F 84% 30.07 in 10.0 mi Calm Calm - N/A   Clear